RH
70 55 34 40 51 65 47 32 30 21 10 8 9 10 12 18 28 35 37 41 34 41 54 64 58 60 44 37 37 34 30 22 19 14 13 10 9 8 7 6 8 9 8 11 10 14 18
44 35 29 39 64 51 33 22 20 13 8 7 6 7 8 10 11 13 15 18 17 19 24 24 41 57 43 38 35 35 26 22 18 15 14 11 10 7 6 5 4 5 7 7 9 10 12
38 30 28 51 42 27 20 17 9 6 6 6 5 5 5 6 7 8 9 9 10 11 12 13 20 32 38 28 28 29 28 23 15 15 12 13 9 7 6 5 4 4 4 6 6 7 9
27 25 57 38 24 21 18 14 5 4 4 5 5 5 4 4 4 5 6 7 8 8 8 9 10 18 25 34 27 22 21 20 16 14 14 12 9 6 6 6 4 3 3 4 4 6 7
30 23 51 27 22 18 17 11 4 3 2 2 3 2 2 3 3 4 4 4 5 5 7 8 9 11 15 20 21 13 14 16 13 12 13 9 8 7 6 4 4 3 3 3 2 3 4
19 25 40 22 17 16 13 6 4 2 2 1 2 2 2 2 2 3 4 4 4 5 6 9 10 10 12 18 9 8 13 16 10 11 9 11 9 6 5 4 4 3 3 2 2 2 3
19 23 29 19 15 15 20 5 4 2 1 1 1 1 1 2 2 2 2 3 4 6 7 9 9 10 11 10 9 9 10 10 9 10 12 8 5 4 4 4 3 3 3 2 2 2 2
23 24 27 17 14 15 17 6 4 2 1 1 1 1 1 2 2 2 2 3 4 5 6 6 6 7 6 5 7 7 9 9 10 10 8 6 5 4 4 3 3 3 3 3 2 2 2
24 22 29 14 13 16 15 9 5 3 2 1 1 1 1 1 1 1 2 3 3 4 4 5 6 5 4 5 5 9 11 11 10 8 7 6 4 3 4 4 3 3 3 2 2 2 2
25 24 29 14 17 16 12 14 6 3 2 2 2 1 1 1 2 2 2 2 2 2 3 3 4 4 4 6 8 9 9 8 7 7 5 4 4 4 4 4 3 3 3 3 2 2 2
48 25 22 20 15 20 14 9 11 6 3 3 3 2 2 1 1 2 2 2 2 2 3 3 4 5 5 6 7 8 9 9 8 6 6 6 5 4 4 3 3 3 3 2 2 2 2
49 23 26 32 14 23 31 13 9 11 8 5 4 4 4 3 2 2 2 2 2 2 3 4 4 5 6 8 8 9 9 8 6 6 6 5 4 4 4 4 3 3 3 2 2 2 3
60 43 33 29 26 18 36 21 14 11 10 10 8 7 6 6 7 6 5 5 4 5 5 5 6 7 8 8 8 8 8 7 6 6 6 5 5 8 8 8 6 5 4 4 4 4 4
64 56 30 42 34 21 24 38 18 18 16 10 10 12 8 7 6 8 9 8 8 7 7 7 6 6 6 6 7 8 8 8 7 7 9 12 10 9 6 5 4 4 4 3 3 2 2
64 83 40 34 35 41 22 31 38 24 26 20 12 8 10 12 12 8 8 10 10 7 7 6 6 6 8 8 8 7 11 13 10 9 7 5 5 4 4 3 3 3 3 3 3 3 3
73 80 54 53 33 35 41 24 39 36 32 28 18 12 8 7 8 10 11 15 12 10 10 11 9 10 12 14 13 11 10 7 5 5 4 4 4 4 4 4 4 4 4 5 9 10 13
77 71 59 48 42 37 42 41 28 40 34 35 30 19 12 8 6 6 7 8 9 10 9 8 8 10 9 8 6 5 5 4 5 5 5 5 5 5 7 6 6 5 5 8 16 25 30
63 66 56 62 39 41 36 31 38 29 37 33 38 33 19 11 8 6 5 5 4 5 5 4 4 4 4 4 4 4 4 4 5 6 6 8 7 10 10 16 15 10 10 20 27 37 61
33 60 46 71 59 38 23 29 34 38 27 35 31 40 34 23 13 9 6 4 4 3 3 3 3 3 3 4 4 4 5 5 7 8 8 10 10 15 17 19 16 14 28 58 56 59 74
94 37 46 75 60 50 58 29 39 35 36 26 36 36 38 33 29 15 10 7 5 4 3 3 3 3 4 4 4 4 6 7 8 11 14 17 20 18 18 30 28 41 55 100 100 99 100
96 59 36 48 65 64 69 67 44 33 30 35 28 32 35 40 35 29 20 12 8 6 5 4 4 3 4 4 4 6 7 8 8 10 13 14 15 17 27 35 46 43 72 100 100 100 100
73 99 67 54 68 49 69 49 43 31 25 28 39 29 33 33 35 37 28 24 16 11 8 7 5 4 4 4 6 8 9 11 12 11 11 16 16 21 30 36 50 58 94 100 100 100 100
100 83 92 77 71 78 57 85 84 58 36 23 26 37 30 38 36 34 35 38 26 22 16 11 9 7 6 5 6 6 9 12 13 14 13 13 16 15 19 20 39 53 74 78 89 71 87
100 99 100 74 68 93 77 71 79 60 46 42 27 30 39 33 44 45 41 44 48 35 27 23 18 15 12 10 9 8 8 9 10 11 12 14 19 24 26 20 21 19 45 42 48 40 51
100 98 100 100 95 96 74 100 54 56 76 73 56 32 29 43 46 45 50 48 52 52 50 36 30 30 24 20 18 17 17 16 15 14 13 12 12 15 16 20 24 38 32 42 49 38 38
100 94 100 100 97 68 62 66 84 62 63 80 70 56 32 22 39 49 54 56 55 56 59 58 50 40 36 33 31 26 24 23 23 24 25 24 23 22 21 18 16 17 25 50 72 91 71
100 100 100 100 89 97 60 96 84 79 93 77 70 76 48 32 24 41 55 64 64 62 59 62 64 57 51 47 44 40 37 35 33 31 28 30 30 29 32 31 29 30 30 31 34 38 43
98 100 100 94 100 95 73 94 96 80 68 71 60 77 80 66 40 23 31 46 66 68 68 68 66 63 60 56 51 48 48 46 45 43 41 40 39 38 39 39 40 41 37 33 34 35 39
77 100 100 91 100 56 68 83 93 71 51 62 88 68 72 61 51 44 29 27 40 64 72 71 75 73 70 66 64 60 54 52 51 51 49 49 49 51 50 49 49 50 50 50 52 51 51
Wind_Speed
92 99 104 79 80 77 78 74 76 80 82 76 77 81 85 87 91 91 89 88 86 86 86 85 82 84 84 82 80 80 80 84 86 85 89 88 88 89 93 99 107 108 106 104 101 100 96
96 108 83 76 71 75 81 74 71 70 73 73 73 73 74 76 78 79 81 81 78 75 74 72 75 79 80 80 79 81 80 81 84 82 82 87 88 87 85 93 98 104 107 105 104 103 98
101 100 80 71 67 76 79 76 72 62 57 62 65 62 65 68 70 71 74 73 73 72 69 68 65 70 74 78 76 79 75 78 80 76 78 82 87 86 81 84 90 96 97 103 104 102 102
107 90 74 69 75 81 80 81 75 56 48 52 57 57 54 58 63 65 65 63 64 67 61 60 59 64 68 71 72 72 71 73 73 73 73 75 80 85 78 82 83 85 87 95 99 103 102
111 83 72 70 84 81 78 78 67 57 51 43 47 47 45 48 50 54 51 52 51 51 49 49 53 58 61 65 68 65 66 66 67 66 65 68 68 73 79 80 76 76 80 86 90 94 97
111 85 76 79 80 78 76 72 66 59 48 38 36 38 38 37 38 41 40 36 32 30 32 38 53 55 55 63 64 57 57 60 59 57 54 56 63 68 68 68 69 71 74 76 78 79 86
106 86 76 82 82 79 82 71 64 54 44 36 30 28 29 28 28 24 22 16 24 31 43 47 52 52 55 55 53 50 50 51 49 46 49 56 56 58 58 61 63 64 66 68 69 70 76
109 93 81 84 85 85 83 75 71 61 48 37 29 23 19 17 15 14 15 19 27 35 41 48 48 49 46 40 43 42 39 40 43 46 48 45 50 50 50 52 53 56 56 59 62 62 64
116 99 84 84 86 96 84 81 71 60 51 42 37 30 20 13 9 3 7 15 25 30 31 33 35 34 33 33 30 33 34 38 40 38 37 40 41 41 42 44 45 46 47 51 53 52 54
123 109 92 80 93 101 87 84 74 63 54 48 49 39 28 19 13 9 10 14 17 18 21 22 25 26 22 23 28 31 32 30 30 32 33 33 35 37 38 36 37 39 41 41 42 41 45
123 117 98 90 91 106 104 87 88 79 68 61 57 48 37 26 22 19 17 16 14 16 15 19 21 25 29 29 27 27 27 28 30 30 28 26 29 26 26 27 27 30 36 37 37 36 34
120 120 106 99 89 102 114 105 94 87 77 67 63 59 56 48 36 28 24 21 19 18 19 21 24 24 23 25 26 26 24 24 21 18 17 19 16 17 20 22 22 24 26 27 28 26 28
118 123 114 98 97 98 112 108 104 96 86 78 73 69 60 55 50 46 41 36 31 29 25 24 25 25 24 23 22 21 19 17 16 13 13 10 10 13 14 14 17 20 21 21 22 24 28
112 117 112 111 98 94 100 108 103 105 101 90 76 72 64 58 52 48 45 41 35 30 30 26 25 24 23 22 21 19 16 13 11 12 9 8 10 10 11 15 17 19 20 20 17 20 20
110 115 114 118 103 96 91 98 104 101 105 101 90 79 67 60 56 49 47 46 36 32 30 27 25 23 22 20 18 16 15 12 9 9 10 9 9 9 11 12 13 12 10 8 9 13 17
101 107 109 117 111 96 92 89 96 98 100 102 97 85 74 62 53 46 47 40 34 32 30 27 23 21 19 15 15 13 10 9 10 10 10 11 11 11 8 7 7 4 5 9 14 17 18
95 100 105 106 112 103 90 86 84 89 91 93 95 93 81 70 60 49 41 34 29 25 22 21 19 18 13 10 13 14 17 17 16 17 13 13 12 11 8 6 5 7 10 16 21 25 30
90 96 100 101 104 106 96 81 77 76 82 83 89 92 87 78 66 56 46 37 30 26 22 23 23 21 20 20 22 23 23 20 19 19 16 16 14 14 13 13 12 13 21 27 27 32 38
90 91 94 102 104 103 96 91 75 72 70 75 77 84 84 82 77 66 55 44 35 29 25 25 26 26 26 26 26 26 25 25 22 20 18 16 14 15 19 21 19 22 32 38 39 38 44
80 90 90 93 96 103 105 97 82 70 67 65 70 73 76 77 78 72 65 56 48 39 33 29 28 29 28 29 31 30 28 25 22 21 19 19 17 18 19 21 23 33 38 54 52 50 52
71 80 90 91 89 90 97 94 91 76 66 63 58 62 66 68 70 70 68 64 57 52 46 39 34 33 30 26 32 32 29 27 23 20 17 16 18 18 20 24 27 37 41 56 59 60 56
67 71 78 83 86 91 96 95 89 81 71 64 61 55 54 58 62 64 65 65 63 57 54 47 43 38 32 29 34 35 32 29 27 24 19 16 16 15 19 24 26 35 44 54 62 62 60
61 67 72 76 82 84 90 89 93 93 85 72 61 56 50 48 51 53 57 63 60 58 55 52 49 44 40 36 31 29 31 28 26 22 18 17 15 12 14 19 27 29 41 49 60 49 58
56 61 65 74 80 78 82 88 93 96 78 74 71 53 50 46 43 46 48 50 53 53 51 50 48 46 43 41 38 34 31 29 27 24 23 23 22 19 14 12 11 10 28 31 39 36 40
56 60 59 65 68 71 78 78 88 93 88 88 76 69 53 44 41 39 40 41 42 44 46 44 44 44 42 40 39 39 38 36 34 32 28 26 25 23 20 20 21 14 12 12 27 25 23
53 58 57 59 63 73 71 78 79 87 90 89 84 71 63 49 40 37 37 37 36 36 36 37 37 35 36 36 36 34 33 32 32 33 33 33 33 31 30 29 25 19 18 15 13 40 24
54 50 59 57 64 64 72 69 78 82 88 89 81 74 63 53 59 32 31 32 34 35 33 32 31 29 28 27 26 26 26 26 26 26 25 27 28 27 27 26 24 25 25 26 24 18 13
46 52 55 65 58 64 71 61 71 79 80 86 83 78 73 69 52 39 30 29 28 28 30 30 30 28 25 21 19 20 18 16 16 17 17 17 18 17 18 17 16 17 15 17 17 18 18
47 49 57 57 57 62 68 63 71 76 77 82 84 81 75 64 55 38 32 41 28 21 23 23 23 25 26 25 21 17 13 9 7 7 7 7 7 7 7 8 8 7 6 7 6 6 5
Wind_Direction
337 331 327 323 322 318 317 316 316 310 299 291 284 278 273 269 268 269 268 267 265 263 260 260 258 257 253 253 252 252 249 245 245 245 243 242 243 242 243 243 241 240 240 239 239 237 239
337 332 330 323 322 318 317 319 318 310 299 290 286 279 274 270 266 263 262 260 260 261 260 257 255 254 252 251 249 250 248 246 244 244 243 242 241 242 244 245 242 242 240 242 240 242 240
339 338 330 323 324 328 325 327 323 314 299 293 287 284 276 271 269 264 262 260 258 256 255 254 251 251 251 250 248 247 246 246 244 245 243 240 241 241 245 246 244 242 243 242 242 242 242
346 343 338 336 339 336 335 335 328 323 313 301 292 287 276 271 269 266 264 261 256 253 251 251 248 245 246 247 244 244 242 244 245 244 242 239 238 240 241 245 246 245 242 243 243 243 243
350 346 341 344 350 341 343 338 334 334 327 312 299 291 286 277 269 263 256 255 255 255 251 248 248 245 242 243 243 240 240 242 244 241 240 238 239 239 241 244 247 246 244 242 243 243 244
352 352 350 358 353 345 350 346 345 343 337 327 312 302 293 283 282 281 269 263 255 246 240 240 240 240 238 240 240 238 237 240 241 237 238 239 238 239 241 244 246 244 244 244 244 244 245
359 357 357 5 2 357 358 355 356 353 350 346 334 317 308 301 289 290 281 254 226 211 210 213 225 228 232 234 237 236 233 235 236 233 233 233 236 239 242 243 244 245 245 245 244 244 244
2 2 4 11 11 9 7 4 5 3 4 7 2 346 327 316 300 278 250 228 213 213 215 219 218 219 226 226 228 227 225 226 226 227 232 233 237 239 242 244 246 246 245 244 243 244 246
4 7 8 14 16 20 14 14 11 8 11 22 24 22 13 0 354 297 198 195 203 210 210 215 218 217 216 215 214 211 210 215 222 230 234 231 234 238 240 241 240 240 242 242 243 246 245
4 6 9 12 18 24 25 24 22 22 27 36 38 32 32 43 55 82 129 165 181 183 192 191 196 201 198 185 193 198 206 211 215 217 221 225 227 229 233 238 242 244 247 249 248 244 243
5 7 9 11 16 25 26 30 31 31 34 34 44 47 44 55 71 84 102 121 133 144 156 157 162 171 174 180 185 189 193 199 207 213 218 223 228 232 239 243 243 237 235 237 239 239 242
6 7 12 11 17 23 26 29 34 34 35 41 46 50 56 53 54 63 79 95 107 121 135 148 153 157 160 168 172 179 185 196 203 203 204 214 213 217 225 228 231 235 240 242 246 252 252
8 8 9 12 13 22 26 29 32 34 37 39 47 51 54 58 63 65 67 70 78 91 101 118 129 141 150 157 165 165 171 179 180 173 176 185 195 202 213 223 230 237 242 246 250 252 252
5 13 13 14 13 16 23 29 31 33 33 37 41 47 50 56 61 68 73 78 84 93 100 109 121 131 143 146 146 150 156 155 151 139 132 161 197 207 220 228 235 244 249 250 248 246 243
6 9 14 13 15 13 21 26 29 31 32 33 35 38 41 45 50 55 66 70 70 79 88 97 103 107 112 120 129 125 121 122 122 116 154 177 185 194 205 216 224 226 227 216 224 223 219
5 9 11 13 15 15 15 22 28 30 31 32 34 36 36 39 41 45 51 57 63 69 77 82 89 96 102 110 100 100 102 108 117 139 143 146 153 142 158 185 192 165 170 167 171 175 188
7 11 14 12 14 16 16 16 24 28 31 34 34 35 37 36 36 37 42 49 54 57 61 69 78 91 94 97 87 98 101 106 114 111 115 124 120 125 140 143 135 131 144 160 168 167 170
8 11 9 12 12 11 16 15 17 24 29 32 35 35 35 41 37 36 38 45 51 60 61 72 79 80 84 87 91 96 99 102 102 105 103 118 130 133 137 145 138 145 144 155 156 164 165
9 10 12 13 9 8 13 17 14 17 26 28 32 35 36 36 41 41 39 39 40 50 60 67 72 76 81 85 90 90 91 92 94 104 110 117 134 143 138 140 136 138 144 152 156 163 165
7 11 10 11 12 14 13 16 18 13 15 26 28 31 35 38 38 40 44 46 47 46 49 56 70 76 80 90 87 80 77 78 86 97 106 116 133 131 132 127 133 132 145 159 163 166 167
6 9 8 9 11 11 11 9 11 16 12 13 24 28 31 33 38 39 42 45 47 49 49 52 59 65 79 87 89 83 77 74 81 87 98 116 128 140 133 132 138 140 152 165 167 170 175
5 6 9 8 9 7 10 13 11 18 18 11 10 18 30 29 32 36 38 42 45 47 49 49 51 51 60 74 81 85 82 80 78 83 85 101 125 144 137 137 144 152 156 168 173 177 183
359 5 6 5 6 7 6 7 7 10 15 14 11 7 13 29 27 31 36 37 39 43 47 50 51 52 51 59 63 73 85 87 86 87 86 80 76 100 119 138 150 162 172 173 182 187 191
353 0 2 3 3 6 5 4 7 10 16 14 14 7 5 13 27 29 31 36 35 37 42 47 50 54 57 59 64 67 69 78 83 88 92 95 97 102 110 104 131 135 184 182 192 201 198
350 354 356 1 4 3 4 5 2 4 6 6 9 11 5 5 14 23 27 28 33 32 31 37 43 50 54 58 65 69 71 73 76 78 79 81 86 93 104 112 117 108 117 162 205 207 211
341 345 354 359 358 358 2 2 2 2 3 4 2 7 9 5 4 11 21 24 24 25 26 26 30 38 47 52 58 61 65 69 75 82 83 86 88 87 88 88 91 106 122 144 179 219 229
329 341 345 350 351 353 353 358 1 359 358 357 3 359 6 9 5 357 7 17 21 20 19 17 18 20 28 34 43 53 60 65 71 75 80 84 90 95 99 103 108 109 112 119 120 131 153
329 331 335 340 345 347 345 354 356 358 358 359 356 357 357 357 4 1 355 359 7 12 13 11 10 5 6 11 20 23 27 43 55 62 68 72 78 82 84 87 89 91 94 109 118 127 135
320 328 327 336 339 340 341 344 349 351 354 355 354 353 355 357 0 4 354 0 349 354 358 0 1 358 354 352 352 355 355 3 15 25 42 54 61 63 71 77 73 66 54 49 44 39 29